TimeCDT,TemperatureF,Dew PointF,Humidity,Sea Level PressureIn,VisibilityMPH,Wind Direction,Wind SpeedMPH,Gust SpeedMPH,PrecipitationIn,Events,Conditions,WindDirDegrees,DateUTC
12:15 AM,62.6,33.8,34,30.04,10.0,NE,6.9,-,N/A,,Overcast,50,2013-03-20 05:15:00
12:35 AM,62.6,33.8,34,30.04,10.0,ENE,4.6,-,N/A,,Overcast,60,2013-03-20 05:35:00
12:55 AM,62.6,33.8,34,30.04,10.0,NE,5.8,-,N/A,,Mostly Cloudy,50,2013-03-20 05:55:00
1:15 AM,60.8,32.0,34,30.02,10.0,ENE,6.9,-,N/A,Thunderstorm,Scattered Clouds,60,2013-03-20 06:15:00
1:35 AM,60.8,33.8,36,30.06,10.0,NNE,4.6,-,N/A,,Scattered Clouds,20,2013-03-20 06:35:00
2:15 AM,60.8,33.8,36,30.09,10.0,North,15.0,19.6,N/A,,Mostly Cloudy,350,2013-03-20 07:15:00
2:35 AM,59.0,33.8,39,30.12,10.0,North,13.8,21.9,N/A,,Overcast,360,2013-03-20 07:35:00
2:55 AM,59.0,33.8,39,30.12,10.0,North,15.0,25.3,N/A,Thunderstorm,Overcast,360,2013-03-20 07:55:00
3:15 AM,57.2,35.6,44,30.12,10.0,North,9.2,19.6,N/A,,Overcast,360,2013-03-20 08:15:00
3:35 AM,55.4,39.2,54,30.13,10.0,North,12.7,18.4,N/A,Rain,Light Rain,10,2013-03-20 08:35:00
4:35 AM,50.0,44.6,82,30.16,10.0,North,11.5,17.3,0.02,Rain,Light Rain,10,2013-03-20 09:35:00
4:55 AM,50.0,44.6,82,30.14,10.0,North,11.5,-,0.04,Rain,Rain,360,2013-03-20 09:55:00
5:15 AM,48.2,44.6,87,30.11,10.0,NNE,9.2,-,0.01,Rain,Rain,30,2013-03-20 10:15:00
5:35 AM,48.2,44.6,87,30.11,10.0,NE,6.9,-,0.01,Rain,Light Rain,50,2013-03-20 10:35:00
5:55 AM,50.0,44.6,82,30.13,10.0,Calm,Calm,-,0.01,Rain,Rain,0,2013-03-20 10:55:00
6:15 AM,50.0,44.6,82,30.13,10.0,Calm,Calm,-,0.01,Rain,Light Rain,0,2013-03-20 11:15:00
6:55 AM,50.0,44.6,82,30.15,7.0,Calm,Calm,-,0.04,Rain,Rain,0,2013-03-20 11:55:00
7:15 AM,48.2,44.6,87,30.18,10.0,NNW,10.4,-,0.01,Rain,Light Rain,340,2013-03-20 12:15:00
7:35 AM,48.2,44.6,87,30.18,10.0,Calm,Calm,-,0.01,,Scattered Clouds,0,2013-03-20 12:35:00
7:55 AM,48.2,44.6,87,30.20,10.0,NW,4.6,-,0.01,,Scattered Clouds,320,2013-03-20 12:55:00
8:15 AM,48.2,44.6,87,30.21,10.0,NNW,5.8,-,N/A,,Scattered Clouds,340,2013-03-20 13:15:00
8:35 AM,48.2,44.6,87,30.21,10.0,North,8.1,-,N/A,,Scattered Clouds,360,2013-03-20 13:35:00
9:15 AM,50.0,44.6,82,30.22,10.0,NNE,6.9,-,N/A,,Scattered Clouds,20,2013-03-20 14:15:00
9:35 AM,50.0,44.6,82,30.22,10.0,NNE,4.6,-,N/A,,Scattered Clouds,30,2013-03-20 14:35:00
9:55 AM,50.0,42.8,76,30.23,10.0,NNE,6.9,-,N/A,,Clear,30,2013-03-20 14:55:00
10:15 AM,51.8,42.8,71,30.23,10.0,NNE,6.9,-,N/A,,Clear,20,2013-03-20 15:15:00
10:35 AM,53.6,42.8,67,30.23,10.0,NNE,6.9,-,N/A,,Clear,20,2013-03-20 15:35:00
10:55 AM,55.4,42.8,63,30.23,10.0,NNE,8.1,-,N/A,,Clear,20,2013-03-20 15:55:00
11:15 AM,57.2,42.8,59,30.24,10.0,NNE,5.8,-,N/A,,Scattered Clouds,30,2013-03-20 16:15:00
11:55 AM,60.8,42.8,52,30.22,10.0,NNE,5.8,-,N/A,,Scattered Clouds,20,2013-03-20 16:55:00
12:15 PM,62.6,42.8,48,30.22,10.0,NNE,5.8,-,N/A,,Scattered Clouds,20,2013-03-20 17:15:00
1:15 PM,66.2,37.4,35,30.19,10.0,North,12.7,16.1,N/A,,Scattered Clouds,350,2013-03-20 18:15:00
1:35 PM,68.0,37.4,33,30.17,10.0,North,11.5,17.3,N/A,,Scattered Clouds,360,2013-03-20 18:35:00
1:55 PM,68.0,33.8,28,30.16,10.0,North,10.4,19.6,N/A,,Scattered Clouds,10,2013-03-20 18:55:00
2:15 PM,69.8,30.2,23,30.15,10.0,North,13.8,19.6,N/A,,Scattered Clouds,350,2013-03-20 19:15:00
2:35 PM,69.8,24.8,18,30.14,10.0,NNE,11.5,19.6,N/A,,Scattered Clouds,20,2013-03-20 19:35:00
2:55 PM,69.8,21.2,16,30.13,10.0,North,13.8,19.6,N/A,,Scattered Clouds,360,2013-03-20 19:55:00
3:15 PM,69.8,23.0,17,30.12,10.0,North,12.7,18.4,N/A,,Scattered Clouds,10,2013-03-20 20:15:00
3:35 PM,69.8,24.8,18,30.11,10.0,North,11.5,-,N/A,,Scattered Clouds,360,2013-03-20 20:35:00
3:55 PM,69.8,24.8,18,30.10,10.0,North,13.8,19.6,N/A,,Scattered Clouds,360,2013-03-20 20:55:00
4:15 PM,69.8,23.0,17,30.10,10.0,North,11.5,17.3,N/A,,Scattered Clouds,350,2013-03-20 21:15:00
4:35 PM,69.8,24.8,18,30.10,10.0,North,8.1,-,N/A,,Scattered Clouds,10,2013-03-20 21:35:00
4:55 PM,69.8,24.8,18,30.09,10.0,NNW,13.8,18.4,N/A,,Scattered Clouds,340,2013-03-20 21:55:00
5:15 PM,69.8,26.6,20,30.09,10.0,North,6.9,-,N/A,,Scattered Clouds,10,2013-03-20 22:15:00
5:55 PM,69.8,26.6,20,30.09,10.0,NNW,11.5,-,N/A,,Scattered Clouds,340,2013-03-20 22:55:00
6:15 PM,68.0,26.6,21,30.09,10.0,North,8.1,-,N/A,,Scattered Clouds,360,2013-03-20 23:15:00
6:35 PM,68.0,26.6,21,30.09,10.0,North,6.9,-,N/A,,Scattered Clouds,350,2013-03-20 23:35:00
6:55 PM,64.4,26.6,24,30.09,10.0,North,4.6,-,N/A,,Scattered Clouds,360,2013-03-20 23:55:00
7:15 PM,62.6,28.4,27,30.09,10.0,North,4.6,-,N/A,,Scattered Clouds,360,2013-03-21 00:15:00
7:35 PM,60.8,28.4,29,30.09,7.0,Calm,Calm,-,N/A,,Scattered Clouds,0,2013-03-21 00:35:00
7:55 PM,59.0,32.0,36,30.09,10.0,Calm,Calm,-,N/A,,Scattered Clouds,0,2013-03-21 00:55:00
8:15 PM,57.2,32.0,38,30.09,10.0,North,4.6,-,N/A,,Scattered Clouds,360,2013-03-21 01:15:00
8:35 PM,59.0,28.4,31,30.09,10.0,Calm,Calm,-,N/A,,Scattered Clouds,0,2013-03-21 01:35:00
8:55 PM,57.2,30.2,36,30.09,10.0,NNE,4.6,-,N/A,,Scattered Clouds,20,2013-03-21 01:55:00
9:15 PM,55.4,30.2,38,30.09,10.0,NNE,3.5,-,N/A,,Scattered Clouds,20,2013-03-21 02:15:00
9:35 PM,57.2,28.4,33,30.09,10.0,Calm,Calm,-,N/A,,Scattered Clouds,0,2013-03-21 02:35:00
9:55 PM,55.4,28.4,36,30.09,10.0,Calm,Calm,-,N/A,,Scattered Clouds,0,2013-03-21 02:55:00
10:15 PM,53.6,32.0,44,30.09,10.0,Calm,Calm,-,N/A,,Scattered Clouds,0,2013-03-21 03:15:00
10:35 PM,53.6,32.0,44,30.09,10.0,NNE,4.6,-,N/A,,Scattered Clouds,20,2013-03-21 03:35:00
10:55 PM,53.6,30.2,41,30.09,10.0,North,4.6,-,N/A,,Scattered Clouds,10,2013-03-21 03:55:00
11:15 PM,53.6,28.4,38,30.09,10.0,North,4.6,-,N/A,,Scattered Clouds,360,2013-03-21 04:15:00
11:35 PM,53.6,28.4,38,30.09,10.0,NNE,4.6,-,N/A,,Scattered Clouds,20,2013-03-21 04:35:00